Location: Newark
(51.5033°N, 0.1199°W)
Time: 17:13:07
(UTC+00:00)

ISS - Visible Passes

Search period start: 16 July 2019 00:00
Search period end: 26 July 2019 00:00
Orbit: 409 x 418 km, 51.6° (Epoch: 17 July)

Date Brightness Start Highest point End Pass type
(mag) Time Alt. Az. Time Alt. Az. Time Alt. Az.
16 Jul -3.8 01:07:04 10° W 01:10:25 86° N 01:13:45 10° E visible
16 Jul -3.6 02:43:48 10° W 02:47:02 50° SSW 02:50:15 10° SE visible
16 Jul -1.9 21:06:44 10° S 21:08:25 13° SE 21:10:05 10° ESE visible
16 Jul -3.7 22:41:18 10° SW 22:44:32 49° SSE 22:47:46 10° E visible
17 Jul -3.8 00:17:48 10° W 00:21:08 86° N 00:24:28 10° E visible
17 Jul -3.9 01:54:30 10° W 01:57:49 66° SSW 02:01:06 10° ESE visible
17 Jul -3.2 21:52:15 10° SW 21:55:20 35° SSE 21:58:26 10° E visible
17 Jul -3.9 23:28:30 10° W 23:31:51 88° S 23:35:11 10° E visible
18 Jul -3.9 01:05:13 10° W 01:08:33 80° SSW 01:11:53 10° ESE visible
18 Jul -2.9 02:42:04 10° W 02:44:59 28° SSW 02:47:53 10° SSE visible
18 Jul -2.7 21:03:22 10° SSW 21:06:11 25° SSE 21:09:00 10° E visible
18 Jul -3.9 22:39:14 10° WSW 22:42:34 76° SSE 22:45:54 10° E visible
19 Jul -3.9 00:15:55 10° W 00:19:16 89° NNE 00:22:36 10° E visible
19 Jul -3.4 01:52:40 10° W 01:55:49 40° SSW 01:58:56 10° SE visible
19 Jul -3.8 21:50:00 10° WSW 21:53:18 60° SSE 21:56:36 10° E visible
19 Jul -3.8 23:26:36 10° W 23:29:57 85° N 23:33:18 10° E visible
20 Jul -3.8 01:03:19 10° W 01:06:36 54° SSW 01:09:07 15° SE visible
20 Jul -1.6 02:40:45 10° WSW 02:45:53 - S 02:41:13 12° WSW visible
20 Jul -3.5 21:00:50 10° SW 21:04:03 45° SSE 21:07:16 10° E visible
20 Jul -3.8 22:37:17 10° W 22:40:38 87° N 22:43:58 10° E visible
21 Jul -3.9 00:14:00 10° W 00:17:19 70° SSW 00:18:02 49° SE visible
21 Jul -3.9 21:47:57 10° WSW 21:51:18 85° S 21:54:39 10° E visible
21 Jul -3.9 23:24:39 10° W 23:28:01 84° S 23:29:25 32° ESE visible
22 Jul -1.6 01:01:28 10° W 01:02:12 15° W 01:02:12 15° W visible
22 Jul -3.8 20:58:38 10° WSW 21:01:59 72° SSE 21:05:19 10° E visible
22 Jul -3.8 22:35:19 10° W 22:38:40 88° N 22:41:11 16° E visible
23 Jul -2.5 00:12:03 10° W 00:13:59 28° WSW 00:13:59 28° WSW visible
23 Jul -3.8 21:45:57 10° W 21:49:19 85° N 21:52:40 10° E visible
23 Jul -3.8 23:22:40 10° W 23:25:55 58° SSW 23:25:55 58° SSW visible
24 Jul -3.8 20:56:35 10° W 20:59:57 89° N 21:03:18 10° E visible
24 Jul -3.9 22:33:18 10° W 22:36:39 74° SSW 22:37:57 34° ESE visible
25 Jul -1.3 00:10:14 10° W 00:10:44 13° W 00:10:44 13° W visible
25 Jul -3.9 21:43:56 10° W 21:47:17 87° S 21:50:01 14° E visible
25 Jul -2.5 23:20:42 10° W 23:22:49 28° WSW 23:22:49 28° WSW visible
